TimeCST,TemperatureF,Dew PointF,Humidity,Sea Level PressureIn,VisibilityMPH,Wind Direction,Wind SpeedMPH,Gust SpeedMPH,PrecipitationIn,Events,Conditions,WindDirDegrees,DateUTC
12:00 AM,68,64,82,29.87,6,North,3.5,,,,Scattered Clouds,10,2013-11-04 06:00:00
12:00 AM,68.0,64.4,88,30.03,6.2,North,3.5,-,N/A,Fog,Patches of Fog,10,2013-11-04 06:00:00
1:00 AM,66.2,66.2,100,30.02,1.2,SW,4.6,-,N/A,,Mostly Cloudy,220,2013-11-04 07:00:00
2:00 AM,66.2,66.2,100,30.01,3.1,WNW,4.6,-,N/A,,Mostly Cloudy,290,2013-11-04 08:00:00
3:00 AM,65,65,100,29.85,3,WSW,2.3,,,,Overcast,250,2013-11-04 09:00:00
3:00 AM,66.2,64.4,94,30.00,3.1,WSW,2.3,-,N/A,,Mostly Cloudy,250,2013-11-04 09:00:00
4:00 AM,64.4,62.6,94,30.00,5.0,East,3.5,-,N/A,Fog,Fog,90,2013-11-04 10:00:00
5:00 AM,62.6,60.8,94,30.01,-9999.0,NE,3.5,-,N/A,,Clear,50,2013-11-04 11:00:00
6:00 AM,66,60,76,29.89,2,NE,2.3,,,,Scattered Clouds,40,2013-11-04 12:00:00
6:00 AM,62.6,33.8,34,30.02,6.2,NE,2.3,-,N/A,Fog,Patches of Fog,40,2013-11-04 12:00:00
7:00 AM,68.0,62.6,83,30.04,6.2,NW,2.3,-,N/A,Fog,Mostly Cloudy,320,2013-11-04 13:00:00
8:00 AM,75.2,62.6,65,30.05,6.2,Calm,Calm,-,N/A,,Mostly Cloudy,0,2013-11-04 14:00:00
9:00 AM,78,62,48,29.92,12,West,2.3,,,,Scattered Clouds,260,2013-11-04 15:00:00
9:00 AM,77.0,62.6,61,30.06,6.2,West,2.3,-,N/A,,Mostly Cloudy,260,2013-11-04 15:00:00
10:00 AM,77.0,66.2,69,30.04,6.2,WSW,6.9,-,N/A,,Scattered Clouds,250,2013-11-04 16:00:00
11:00 AM,77.0,64.4,65,30.02,6.2,WSW,6.9,-,N/A,,Scattered Clouds,240,2013-11-04 17:00:00
12:00 PM,79,66,57,29.81,12,WSW,9.2,,,,Partly Cloudy,240,2013-11-04 18:00:00
12:00 PM,78.8,66.2,65,30.00,6.2,WSW,9.2,-,N/A,,Scattered Clouds,240,2013-11-04 18:00:00
1:00 PM,78.8,68.0,69,29.98,6.2,SW,12.7,-,N/A,,Scattered Clouds,230,2013-11-04 19:00:00
2:00 PM,77.0,66.2,69,29.96,6.2,WSW,10.4,-,N/A,,Scattered Clouds,240,2013-11-04 20:00:00
3:00 PM,73,67,77,29.82,6,WSW,11.5,,,Rain,Light Rain,250,2013-11-04 21:00:00
3:00 PM,73.4,68.0,83,29.95,6.2,WSW,11.5,-,N/A,Rain,Light Rain,250,2013-11-04 21:00:00
4:00 PM,69.8,68.0,94,29.95,6.2,WSW,10.4,-,N/A,,Scattered Clouds,240,2013-11-04 22:00:00
5:00 PM,69.8,68.0,94,29.97,6.2,SSW,6.9,-,N/A,Rain,Rain,210,2013-11-04 23:00:00
6:00 PM,69,67,92,29.84,9,WSW,3.5,,,Rain,Light Rain,250,2013-11-05 00:00:00
6:00 PM,69.8,68.0,94,29.98,6.2,WSW,3.5,-,N/A,,Light Drizzle,250,2013-11-05 00:00:00
7:00 PM,69.8,66.2,88,30.01,6.2,Calm,Calm,-,N/A,,Mostly Cloudy,0,2013-11-05 01:00:00
8:00 PM,69.8,66.2,88,30.03,6.2,NW,3.5,-,N/A,Fog,Patches of Fog,310,2013-11-05 02:00:00
9:00 PM,68,67,96,29.86,9,SSW,4.6,,,,Partly Cloudy,200,2013-11-05 03:00:00
9:00 PM,68.0,68.0,100,30.03,6.2,SSW,4.6,-,N/A,,Scattered Clouds,200,2013-11-05 03:00:00
10:00 PM,68.0,62.6,83,30.03,6.2,ESE,10.4,-,N/A,,Scattered Clouds,120,2013-11-05 04:00:00
11:00 PM,68.0,60.8,78,30.02,-9999.0,ENE,9.2,-,N/A,,Clear,70,2013-11-05 05:00:00